SIA412 VLVT-VVNB

Flight info

Callsign SIA412
Flight time 0h 41m
Altitude 33000
Route NET1D NOHET/K0957F330 DCT MC MC3E
Aircraft A359/H-SDE2E3GHIJ3J4J5LM1ORWXY/LB1D1

Departure

Time 2026-05-07 09:54
Airport Wattay International Airport (VLVT)

Arrival

Time 2026-05-07 10:35
Airport Noi Bai International Airport (VVNB)
Time Latitude Longitude Altitude Speed Heading
2026-05-07 09:54 18.23205 102.70614 12533 ft 366 kts 35°
2026-05-07 09:54 18.25282 102.72192 13226 ft 370 kts 35°
2026-05-07 09:55 18.27363 102.73765 13827 ft 375 kts 35°
2026-05-07 09:55 18.29495 102.75372 14402 ft 379 kts 34°
2026-05-07 09:55 18.31651 102.76995 14996 ft 383 kts 35°
2026-05-07 09:55 18.33835 102.78638 15440 ft 386 kts 35°
2026-05-07 09:56 18.36024 102.80285 15981 ft 388 kts 35°
2026-05-07 09:56 18.38203 102.81925 16881 ft 380 kts 35°
2026-05-07 09:56 18.40329 102.83525 18033 ft 371 kts 36°
2026-05-07 09:56 18.42397 102.85082 19062 ft 359 kts 35°
2026-05-07 09:57 18.44394 102.86586 20117 ft 347 kts 35°
2026-05-07 09:57 18.46298 102.88021 21200 ft 335 kts 35°
2026-05-07 09:57 18.48150 102.89417 22337 ft 320 kts 35°
2026-05-07 09:57 18.49910 102.90744 23479 ft 302 kts 35°
2026-05-07 09:58 18.51558 102.91987 24490 ft 281 kts 34°
2026-05-07 09:58 18.53109 102.93158 25326 ft 268 kts 34°
2026-05-07 09:58 18.54608 102.94289 25934 ft 264 kts 33°
2026-05-07 09:58 18.56128 102.95433 26203 ft 274 kts 33°
2026-05-07 09:59 18.57717 102.96628 26363 ft 287 kts 34°
2026-05-07 09:59 18.59375 102.97878 26551 ft 300 kts 34°
2026-05-07 09:59 18.61105 102.99183 26720 ft 312 kts 33°
2026-05-07 09:59 18.62877 103.00520 26891 ft 324 kts 34°
2026-05-07 10:00 18.64746 103.01931 27059 ft 336 kts 34°
2026-05-07 10:00 18.66683 103.03393 27260 ft 349 kts 34°
2026-05-07 10:00 18.68694 103.04913 27414 ft 362 kts 34°
2026-05-07 10:00 18.70779 103.06488 27602 ft 375 kts 34°
2026-05-07 10:01 18.72937 103.08119 27788 ft 388 kts 34°
2026-05-07 10:01 18.75163 103.09803 27999 ft 400 kts 34°
2026-05-07 10:01 18.77456 103.11538 28209 ft 412 kts 34°
2026-05-07 10:01 18.79818 103.13326 28428 ft 424 kts 34°
2026-05-07 10:02 18.82212 103.15138 28623 ft 435 kts 34°
2026-05-07 10:02 18.84699 103.17021 28834 ft 446 kts 34°
2026-05-07 10:02 18.87247 103.18952 29036 ft 456 kts 34°
2026-05-07 10:02 18.89854 103.20928 29234 ft 466 kts 34°
2026-05-07 10:03 18.92515 103.22945 29438 ft 476 kts 34°
2026-05-07 10:03 18.95225 103.25001 29753 ft 483 kts 34°
2026-05-07 10:03 18.97967 103.27083 30120 ft 487 kts 34°
2026-05-07 10:03 19.00689 103.29150 30479 ft 491 kts 34°
2026-05-07 10:04 19.03470 103.31262 30840 ft 494 kts 34°
2026-05-07 10:04 19.06268 103.33388 31230 ft 497 kts 34°
2026-05-07 10:04 19.09083 103.35528 31603 ft 499 kts 34°
2026-05-07 10:04 19.11910 103.37678 31935 ft 502 kts 34°
2026-05-07 10:05 19.14753 103.39841 32276 ft 505 kts 34°
2026-05-07 10:05 19.17612 103.42016 32619 ft 508 kts 34°
2026-05-07 10:05 19.20487 103.44206 32825 ft 509 kts 34°
2026-05-07 10:06 19.26159 103.48529 32870 ft 504 kts 34°
2026-05-07 10:06 19.31843 103.52865 32863 ft 504 kts 33°
2026-05-07 10:07 19.37550 103.57220 32864 ft 506 kts 33°
2026-05-07 10:07 19.43267 103.61589 32859 ft 507 kts 33°
2026-05-07 10:08 19.48973 103.65977 32859 ft 507 kts 34°
2026-05-07 10:08 19.54639 103.70336 32851 ft 507 kts 34°
2026-05-07 10:09 19.60348 103.74733 32825 ft 509 kts 34°
2026-05-07 10:09 19.63230 103.76952 32972 ft 515 kts 34°
2026-05-07 10:09 19.66140 103.79195 33274 ft 517 kts 34°
2026-05-07 10:09 19.69048 103.81438 33707 ft 516 kts 34°
2026-05-07 10:10 19.71948 103.83678 34132 ft 515 kts 34°
2026-05-07 10:10 19.74801 103.85881 34526 ft 514 kts 34°
2026-05-07 10:10 19.77692 103.88114 34784 ft 516 kts 34°
2026-05-07 10:11 19.83488 103.92594 34850 ft 515 kts 34°
2026-05-07 10:11 19.89279 103.97074 34869 ft 515 kts 34°
2026-05-07 10:12 19.95078 104.01565 34876 ft 516 kts 34°
2026-05-07 10:12 20.00844 104.06035 34875 ft 517 kts 34°
2026-05-07 10:13 20.06648 104.10538 34875 ft 516 kts 34°
2026-05-07 10:13 20.12451 104.15043 34888 ft 517 kts 34°
2026-05-07 10:14 20.18260 104.19558 34882 ft 517 kts 34°
2026-05-07 10:14 20.21158 104.21812 34767 ft 512 kts 34°
2026-05-07 10:14 20.23988 104.24016 34029 ft 512 kts 34°
2026-05-07 10:14 20.26879 104.26265 32943 ft 518 kts 34°
2026-05-07 10:15 20.29801 104.28539 31913 ft 522 kts 34°
2026-05-07 10:15 20.32737 104.30826 30942 ft 524 kts 34°
2026-05-07 10:15 20.35687 104.33126 29981 ft 526 kts 34°
2026-05-07 10:15 20.38642 104.35431 28947 ft 526 kts 34°
2026-05-07 10:16 20.41580 104.37724 28112 ft 521 kts 34°
2026-05-07 10:16 20.44489 104.39997 27379 ft 515 kts 34°
2026-05-07 10:16 20.47365 104.42245 26668 ft 510 kts 34°
2026-05-07 10:16 20.50174 104.44440 25960 ft 505 kts 34°
2026-05-07 10:17 20.52994 104.46644 25246 ft 500 kts 34°
2026-05-07 10:17 20.55792 104.48832 24524 ft 496 kts 34°
2026-05-07 10:17 20.58564 104.51002 23836 ft 493 kts 34°
2026-05-07 10:17 20.61316 104.53158 23074 ft 489 kts 34°
2026-05-07 10:18 20.64044 104.55295 22333 ft 483 kts 35°
2026-05-07 10:18 20.66737 104.57407 21637 ft 477 kts 35°
2026-05-07 10:18 20.69394 104.59491 20934 ft 471 kts 35°
2026-05-07 10:18 20.72010 104.61543 20250 ft 464 kts 35°
2026-05-07 10:19 20.74599 104.63574 19565 ft 459 kts 35°
2026-05-07 10:19 20.77121 104.65555 18874 ft 454 kts 35°
2026-05-07 10:19 20.79654 104.67544 18183 ft 450 kts 35°
2026-05-07 10:19 20.82173 104.69495 17383 ft 445 kts 34°
2026-05-07 10:20 20.84347 104.71835 16627 ft 444 kts 53°
2026-05-07 10:20 20.85877 104.74677 15927 ft 439 kts 62°
2026-05-07 10:20 20.87231 104.77581 15211 ft 434 kts 62°
2026-05-07 10:20 20.88615 104.80435 14508 ft 429 kts 61°
2026-05-07 10:21 20.90029 104.83226 13831 ft 425 kts 60°
2026-05-07 10:21 20.91436 104.85931 13083 ft 419 kts 59°
2026-05-07 10:21 20.92856 104.88624 12379 ft 413 kts 59°
2026-05-07 10:21 20.94264 104.91275 11698 ft 407 kts 59°
2026-05-07 10:22 20.95641 104.93856 11453 ft 389 kts 59°
2026-05-07 10:22 20.96948 104.96305 11345 ft 369 kts 59°
2026-05-07 10:22 20.98188 104.98628 11229 ft 350 kts 59°
2026-05-07 10:22 20.99367 105.00838 11132 ft 333 kts 58°
2026-05-07 10:23 21.00492 105.02939 10981 ft 319 kts 58°
2026-05-07 10:23 21.01570 105.04948 10846 ft 305 kts 58°
2026-05-07 10:23 21.02593 105.06855 10647 ft 295 kts 58°
2026-05-07 10:23 21.03610 105.08750 10292 ft 292 kts 58°
2026-05-07 10:24 21.04616 105.10625 9971 ft 289 kts 58°
2026-05-07 10:24 21.05610 105.12481 9642 ft 288 kts 58°
2026-05-07 10:24 21.06620 105.14366 9463 ft 295 kts 58°
2026-05-07 10:24 21.07639 105.16270 9203 ft 295 kts 58°
2026-05-07 10:25 21.08654 105.18168 8832 ft 292 kts 58°
2026-05-07 10:25 21.09658 105.20050 8496 ft 291 kts 58°
2026-05-07 10:25 21.10659 105.21920 8174 ft 290 kts 59°
2026-05-07 10:25 21.11645 105.23767 7847 ft 289 kts 58°
2026-05-07 10:26 21.12638 105.25628 7541 ft 288 kts 58°
2026-05-07 10:26 21.13627 105.27482 7211 ft 285 kts 59°
2026-05-07 10:26 21.14609 105.29324 6912 ft 284 kts 58°
2026-05-07 10:26 21.15581 105.31150 6615 ft 281 kts 58°
2026-05-07 10:27 21.16546 105.32958 6300 ft 279 kts 58°
2026-05-07 10:27 21.17503 105.34753 5977 ft 277 kts 58°
2026-05-07 10:27 21.18448 105.36526 5766 ft 268 kts 59°
2026-05-07 10:27 21.19337 105.38200 5673 ft 255 kts 58°
2026-05-07 10:28 21.20194 105.39812 5548 ft 243 kts 58°
2026-05-07 10:28 21.21011 105.41347 5437 ft 231 kts 58°
2026-05-07 10:28 21.21782 105.42812 5310 ft 221 kts 60°
2026-05-07 10:28 21.22352 105.44320 5134 ft 217 kts 70°
2026-05-07 10:29 21.22777 105.45874 4930 ft 217 kts 73°
2026-05-07 10:29 21.23181 105.47431 4715 ft 217 kts 73°
2026-05-07 10:29 21.23583 105.48984 4504 ft 216 kts 73°
2026-05-07 10:30 21.24379 105.52041 4094 ft 214 kts 74°
2026-05-07 10:30 21.24778 105.53573 3874 ft 213 kts 74°
2026-05-07 10:30 21.25179 105.55097 3670 ft 212 kts 75°
2026-05-07 10:30 21.25575 105.56613 3453 ft 210 kts 75°
2026-05-07 10:31 21.25968 105.58117 3256 ft 209 kts 76°
2026-05-07 10:31 21.26359 105.59622 3041 ft 210 kts 75°
2026-05-07 10:31 21.26753 105.61128 2823 ft 208 kts 76°
2026-05-07 10:31 21.26957 105.62655 2640 ft 206 kts 92°
2026-05-07 10:32 21.26688 105.64142 2425 ft 204 kts 111°
2026-05-07 10:32 21.26225 105.65531 2312 ft 196 kts 110°
2026-05-07 10:32 21.25839 105.66891 2209 ft 188 kts 107°
2026-05-07 10:32 21.25470 105.68216 2012 ft 183 kts 109°
2026-05-07 10:33 21.25097 105.69504 1743 ft 179 kts 108°
2026-05-07 10:33 21.24735 105.70759 1521 ft 174 kts 108°
2026-05-07 10:33 21.24384 105.71986 1295 ft 169 kts 107°
2026-05-07 10:33 21.24050 105.73145 1073 ft 155 kts 108°
2026-05-07 10:34 21.23748 105.74193 915 ft 143 kts 106°
2026-05-07 10:34 21.23466 105.75178 722 ft 136 kts 107°
2026-05-07 10:34 21.23197 105.76109 562 ft 127 kts 106°
2026-05-07 10:34 21.22936 105.77021 391 ft 128 kts 108°
2026-05-07 10:35 21.22672 105.77933 229 ft 127 kts 107°
2026-05-07 10:35 21.22420 105.78813 89 ft 120 kts 107°
2026-05-07 10:35 21.22200 105.79574 50 ft 68 kts 107°
2026-05-07 10:35 21.22156 105.79730 53 ft 7 kts 107°
2026-05-07 10:36 21.22139 105.79792 49 ft 11 kts 107°
2026-05-07 10:36 21.22115 105.79880 55 ft 14 kts 107°
2026-05-07 10:36 21.22081 105.79984 49 ft 14 kts 122°
2026-05-07 10:36 21.22017 105.80007 50 ft 8 kts 189°
2026-05-07 10:37 21.21956 105.79993 51 ft 10 kts 195°
2026-05-07 10:37 21.21883 105.79968 51 ft 12 kts 200°
2026-05-07 10:37 21.21844 105.79913 51 ft 7 kts 272°
2026-05-07 10:37 21.21854 105.79849 51 ft 11 kts 286°
2026-05-07 10:38 21.21861 105.79772 52 ft 4 kts 238°
2026-05-07 10:38 21.21841 105.79753 52 ft 5 kts 226°
2026-05-07 10:38 21.21818 105.79742 51 ft 5 kts 199°
2026-05-07 10:38 21.21795 105.79734 51 ft 0 kts 199°